Weather History for KMCW - January, 2014

Change the Weather History Date:

Tuesday, January 21, 2014

  Actual Average Record
Temperature  
Mean Temperature -2 °F 16 °F  
Max Temperature 8 °F 25 °F 48 °F (1921)
Min Temperature -13 °F 7 °F -29 °F (1970)
Degree Days  
Heating Degree Days 67 49  
Month to date heating degree days 1143 1029  
Since 1 July heating degree days 4387 4118  
Cooling Degree Days 0 0  
Month to date cooling degree days 0 0  
Year to date cooling degree days 0 0  
Moisture  
Dew Point -7 °F    
Average Humidity 76    
Maximum Humidity 87    
Minimum Humidity 64    
Precipitation  
Precipitation T in 0.03 in 0.57 in (1917)
Month to date precipitation 0.21 0.54  
Year to date precipitation 0.21 0.54  
Snow  
Snow 0.90 in 0.40 in 5.70 in (1917)
Month to date snowfall 4.6 7.1  
Since 1 July snowfall 21.0 21.1  
Snow Depth 4.00 in    
Sea Level Pressure  
Sea Level Pressure 30.33 in    
Wind  
Wind Speed 11 mph (SW)    
Max Wind Speed 22 mph    
Max Gust Speed 25 mph    
Visibility 9 miles    
Events Snow    
T = Trace of Precipitation, MM = Missing Value Source: NWS Daily Summary

Daily Weather History Graph

Daily Weather History Graph

Search for Another Location

Airport or City:

Trip Planner

Search our weather history database for the weather conditions in past years. The results will help you decide how hot, cold, wet, or windy it might be!

Date:

Astronomy

Jan. 21, 2014 Rise Set
Actual Time 7:38 AM CST 5:11 PM CST
Civil Twilight 7:07 AM CST 5:42 PM CST
Nautical Twilight 6:32 AM CST 6:17 PM CST
Astronomical Twilight 5:58 AM CST 6:50 PM CST
Moon 10:55 PM CST (1/21) 9:59 AM CST (1/21)
Length of Visible Light 10h 34m
Length of Day
9h 32m
Waning Gibbous, 74% of the Moon is Illuminated
Jan 21
Waning Gibbous
Jan 23
Last Quarter
Jan 30
New
Feb 6
First Quarter
Feb 14
Full

Hourly Weather History & Observations

Time (CST) Temp. Windchill Dew Point Humidity Pressure Visibility Wind Dir Wind Speed Gust Speed Precip Events Conditions
12:53 AM -2.0 °F -23.9 °F -11.0 °F 66% 30.44 in 10.0 mi NNW 18.4 mph - N/A   Clear
1:53 AM -4.0 °F -26.4 °F -11.9 °F 69% 30.46 in 10.0 mi North 18.4 mph - N/A   Clear
2:53 AM -5.1 °F -25.9 °F -13.0 °F 69% 30.49 in 10.0 mi NNW 15.0 mph - N/A   Clear
3:53 AM -6.0 °F -28.4 °F -15.0 °F 65% 30.50 in 10.0 mi NNW 17.3 mph - N/A   Unknown
4:53 AM -8.0 °F -29.6 °F -15.0 °F 71% 30.51 in 10.0 mi NNW 15.0 mph - N/A   Clear
5:53 AM -9.0 °F -30.2 °F -16.1 °F 71% 30.49 in 10.0 mi NNW 13.8 mph - N/A   Clear
6:53 AM -11.0 °F -27.6 °F -16.1 °F 78% 30.48 in 10.0 mi NW 8.1 mph - N/A   Clear
7:53 AM -13.0 °F - -18.0 °F 78% 30.48 in 10.0 mi Calm Calm - N/A   Clear
8:53 AM -9.9 °F -28.6 °F -16.1 °F 74% 30.49 in 10.0 mi WNW 10.4 mph - N/A   Clear
9:53 AM -7.1 °F -23.9 °F -14.1 °F 72% 30.49 in 10.0 mi WNW 9.2 mph - N/A   Clear
10:53 AM -6.0 °F -20.1 °F -11.9 °F 75% 30.48 in 10.0 mi West 6.9 mph - N/A   Clear
11:53 AM -4.0 °F -14.6 °F -9.9 °F 76% 30.43 in 10.0 mi West 4.6 mph - N/A   Clear
12:53 PM -2.0 °F -15.4 °F -8.0 °F 76% 30.37 in 10.0 mi SSW 6.9 mph - N/A   Scattered Clouds
1:53 PM -0.0 °F -13.0 °F -5.1 °F 79% 30.32 in 10.0 mi South 6.9 mph - N/A   Overcast
2:53 PM 1.9 °F -12.9 °F -5.1 °F 72% 30.28 in 10.0 mi South 9.2 mph - N/A   Overcast
3:53 PM 3.0 °F -14.1 °F -4.0 °F 73% 30.27 in 10.0 mi South 12.7 mph - N/A   Overcast
4:53 PM 3.9 °F -11.3 °F -2.0 °F 76% 30.24 in 5.0 mi South 10.4 mph - 0.00 in   Haze
5:19 PM 3.9 °F -13.0 °F -0.9 °F 80% 30.13 in 2.5 mi South 12.7 mph - 0.00 in Snow Light Snow
5:36 PM 3.9 °F -13.0 °F -0.9 °F 80% 30.11 in 3.0 mi SSE 12.7 mph - 0.00 in Snow Light Snow
5:53 PM 3.9 °F -14.3 °F -0.9 °F 80% 30.21 in 3.0 mi South 15.0 mph - 0.00 in Snow Light Snow
6:53 PM 5.0 °F -9.1 °F 1.0 °F 84% 30.23 in 4.0 mi South 9.2 mph - 0.00 in Snow Light Snow
7:53 PM 6.1 °F -8.7 °F 1.9 °F 83% 30.20 in 10.0 mi South 10.4 mph - 0.00 in   Overcast
8:53 PM 6.1 °F -10.2 °F 1.0 °F 80% 30.18 in 10.0 mi South 12.7 mph - N/A   Overcast
9:53 PM 7.0 °F -7.5 °F 1.0 °F 77% 30.14 in 10.0 mi South 10.4 mph - N/A   Overcast
10:53 PM 7.0 °F -8.3 °F 1.9 °F 80% 30.12 in 10.0 mi South 11.5 mph - N/A   Overcast
11:53 PM 8.1 °F -7.7 °F 3.0 °F 80% 30.08 in 10.0 mi South 12.7 mph - N/A   Overcast